Tracking 35331 objects as of 17-Sep-2026
HD Live streaming from Space Station
objects crossing your sky now

SPACEBEE-101


SPACEBEE-101 is no longer on orbit


NORAD ID: 48884
Int'l Code: 2021-059F
Launch date: June 30, 2021
Source: United States (US)
Launch site: AIR FORCE EASTERN TEST RANGE (AFETR)
Decay date: 2024-03-28
Your satellite tracking list
Your tracking list is empty




NASA's NSSDC Master Catalog

Two Line Element Set (TLE):
1 48884U 21059F   24085.14997396  .19659291  28872-5  27928-3 0  9991
2 48884  97.5844 242.2908 0021242 321.8429  38.1368 16.47222174153057
Source of the keplerian elements: AFSPC